Temperature
11 10 10 10 10 10 10 9 9 9 9 9 9 9 9 8 8 8 8 8 8 8 8 7 7 7 7 7 7 7 7 7 7 7 7 7 7 7 8 8 8 8 8
10 10 10 9 9 9 9 9 9 9 9 9 9 9 8 8 8 8 8 8 8 7 7 7 7 7 7 7 7 7 6 6 6 6 5 6 7 7 7 7 7 7 7
10 10 9 9 9 9 9 9 8 8 8 8 8 8 8 8 8 8 8 7 7 7 7 7 6 6 6 6 6 6 6 5 6 5 5 5 6 6 6 7 7 7 7
10 10 9 9 9 9 9 9 8 8 8 8 8 8 8 7 7 7 7 7 7 7 7 6 6 6 6 6 6 5 5 5 5 5 5 5 5 5 5 6 6 6 6
9 9 9 9 9 9 9 9 8 8 8 8 8 7 7 7 7 7 7 7 6 6 6 6 6 6 6 5 5 5 5 5 4 4 4 4 4 4 4 5 5 6 6
9 9 9 8 8 8 8 8 8 8 8 8 7 7 7 7 7 7 6 6 6 6 6 6 6 5 5 5 5 5 5 5 4 4 4 4 4 4 4 4 5 5 5
9 8 8 8 8 8 8 8 8 7 7 7 7 7 7 7 7 6 6 6 6 5 5 5 5 5 5 5 5 5 4 4 4 4 4 4 4 4 3 3 4 4 5
9 8 8 8 8 8 8 8 8 7 7 7 7 7 7 6 6 6 6 5 5 5 5 5 5 5 5 4 4 4 4 4 4 4 4 3 3 3 3 3 3 3 4
8 8 7 7 7 8 8 8 7 7 7 7 7 6 6 6 6 6 5 5 5 5 5 5 5 4 4 4 4 4 4 3 3 3 3 3 3 3 3 3 3 2 3
8 7 7 7 7 7 7 7 7 7 7 7 6 6 6 6 6 5 5 5 5 5 5 5 4 4 4 4 4 3 3 3 3 3 3 3 3 3 3 2 2 2 2
7 7 7 7 7 7 7 7 7 6 6 6 6 6 6 5 5 5 5 5 5 5 4 4 4 4 4 3 3 3 3 3 3 2 2 2 2 2 2 2 2 2 2
7 7 7 6 6 6 6 7 6 6 6 6 6 6 5 5 5 5 5 5 4 4 4 4 3 3 3 3 3 3 3 2 2 2 2 2 2 2 2 2 2 2 2
6 6 6 6 6 6 6 6 6 6 6 6 6 5 5 5 5 4 4 4 4 4 4 3 3 3 3 3 3 2 2 2 2 2 1 1 1 1 1 1 2 2 2
6 6 6 6 6 6 6 6 6 6 6 5 5 5 5 4 4 4 4 4 4 4 3 3 3 3 3 2 2 2 2 2 1 1 1 1 1 1 1 1 1 1 1
5 5 5 5 5 6 6 6 6 6 5 5 5 5 4 4 4 4 4 3 3 3 3 3 3 3 2 2 2 2 1 1 1 1 1 1 1 1 1 1 1 1 1
5 5 5 5 5 5 5 5 5 5 5 5 4 4 4 4 4 4 3 3 3 3 3 2 2 2 2 2 2 1 1 1 1 1 1 1 1 1 1 1 1 1 1
5 4 5 5 5 5 5 5 5 5 5 4 4 4 4 4 3 3 3 3 3 2 2 2 2 2 2 2 2 1 1 1 1 1 0 0 1 1 1 1 1 1 1
4 4 4 5 5 5 5 5 4 4 4 4 4 3 3 3 3 3 2 2 2 2 2 2 2 2 2 2 1 1 1 0 0 0 0 0 0 0 0 0 0 0 1
4 4 4 4 4 4 4 4 4 4 3 3 3 3 3 3 3 2 2 2 2 2 1 1 1 1 1 1 1 1 0 -0 -0 -0 -0 -0 -0 -0 -0 -0 0 0 0
4 4 4 4 4 4 3 3 3 3 3 3 3 3 2 2 2 2 2 2 1 1 1 1 1 1 1 1 1 0 -0 -1 -1 -1 -0 -0 -0 -0 -0 -0 -0 -0 0
3 3 3 3 3 3 3 3 2 2 2 2 2 2 2 2 2 1 1 1 1 1 1 1 1 1 1 0 0 -0 -1 -1 -1 -1 -1 -1 -1 -1 -1 -1 -0 -0 -0
2 2 2 2 2 2 2 2 2 2 2 2 2 2 2 1 1 1 1 1 1 0 0 0 0 0 0 -0 -0 -0 -1 -1 -1 -1 -1 -1 -1 -1 -1 -1 -1 -0 -0
1 1 2 2 2 2 1 1 1 1 1 1 1 1 1 1 1 1 0 0 0 -0 -1 -1 -1 -1 -1 -1 -1 -1 -1 -1 -1 -2 -2 -2 -1 -1 -1 -1 -1 -1 -1
1 1 1 1 1 1 1 1 1 1 1 1 1 1 0 0 0 0 -0 -0 -1 -1 -1 -2 -2 -2 -2 -1 -1 -2 -2 -2 -2 -2 -2 -2 -2 -1 -2 -1 -1 -1 -1
0 0 0 0 0 0 0 0 0 0 0 0 -0 -0 -0 -1 -1 -1 -1 -1 -1 -2 -2 -2 -2 -2 -2 -2 -2 -2 -2 -2 -2 -2 -2 -2 -2 -2 -2 -2 -2 -2 -2
-0 -0 -0 -0 -0 -0 -0 -0 -0 -0 -0 -1 -1 -1 -1 -1 -1 -1 -1 -1 -2 -2 -2 -2 -2 -2 -2 -2 -2 -2 -2 -2 -2 -2 -2 -2 -2 -2 -2 -2 -2 -2 -2
Wind_Speed
10 9 9 9 8 8 8 7 7 6 4 4 4 3 3 3 3 3 3 4 4 4 4 4 5 5 5 6 7 6 6 6 5 6 7 7 8 8 7 7 8 8 9
9 8 9 9 9 9 8 8 7 6 5 4 4 4 4 4 4 3 4 4 4 5 4 5 5 5 6 7 7 6 5 6 5 5 6 6 6 5 7 7 8 9 8
11 10 10 10 9 9 8 7 7 6 6 5 3 3 3 3 4 4 4 4 5 5 5 6 6 6 6 6 7 7 7 6 6 5 5 5 5 7 6 7 7 8 8
11 11 10 10 10 9 8 7 7 6 6 5 5 5 5 5 5 5 4 5 5 5 5 6 7 7 6 7 7 7 7 7 7 6 6 8 7 6 6 6 7 8 9
10 11 11 10 9 8 7 6 6 6 5 6 6 6 6 5 5 5 6 6 5 5 6 6 6 7 6 7 7 7 7 7 8 7 7 8 8 10 9 11 10 9 9
9 9 10 9 8 7 6 6 6 6 6 6 6 7 7 7 6 6 6 6 5 5 6 7 7 7 7 7 7 8 9 8 9 8 8 8 8 8 9 11 12 11 10
7 8 9 9 8 8 7 7 7 6 6 6 7 7 8 8 8 7 7 7 6 6 7 7 7 7 7 8 8 8 9 9 10 10 9 9 9 9 9 11 12 12 11
6 7 8 9 8 8 8 8 8 7 7 7 7 7 7 6 6 7 7 7 6 7 8 8 8 8 9 8 8 8 9 9 10 11 11 9 9 9 9 10 10 12 11
5 6 7 8 8 8 8 8 8 7 7 7 7 7 7 7 7 8 8 7 7 7 8 8 8 9 9 9 9 8 9 10 10 10 11 10 9 9 10 10 10 10 12
4 5 6 7 7 7 7 7 8 8 7 7 7 6 7 7 7 7 8 8 8 8 8 8 9 9 9 9 9 9 9 10 10 9 11 11 10 9 9 9 10 10 11
4 4 5 5 6 5 6 6 7 7 6 6 7 7 6 6 7 7 7 7 7 7 8 8 8 9 9 9 9 9 10 11 11 11 11 12 12 10 9 9 10 10 10
3 3 4 4 4 5 5 5 6 6 6 6 6 6 6 6 6 7 7 6 7 7 8 8 8 9 9 9 10 10 11 11 12 12 12 13 11 12 11 10 11 11 11
1 2 3 3 4 4 4 5 5 5 5 5 5 5 5 5 6 6 6 6 7 7 7 8 8 9 9 9 9 10 11 11 12 12 13 13 12 13 11 11 11 10 10
1 1 2 3 3 4 4 4 4 4 4 4 5 5 5 5 6 6 6 6 6 7 7 8 8 8 9 9 9 10 10 11 12 12 12 12 12 13 12 11 11 10 10
1 2 2 3 3 3 3 3 3 3 3 4 4 5 5 5 5 5 6 6 6 6 7 7 8 8 8 8 9 9 10 11 11 12 12 12 13 14 13 11 11 10 9
2 3 3 3 3 3 3 3 3 3 3 3 4 4 4 4 4 5 5 6 6 6 7 7 8 8 8 10 12 11 10 10 11 11 11 11 12 13 16 17 16 14 12
4 4 4 4 3 3 2 3 2 2 2 3 3 3 4 4 4 5 5 6 6 7 7 7 8 9 10 11 12 12 10 10 10 11 11 10 10 12 12 13 15 15 15
4 4 4 4 3 2 2 1 1 2 2 2 3 3 3 4 4 5 5 6 6 6 7 7 8 9 10 11 13 13 10 10 10 11 11 11 12 11 11 11 11 11 11
4 4 4 3 2 2 1 0 1 1 2 3 3 3 3 4 5 5 6 6 6 7 7 7 8 9 10 11 12 12 9 9 10 10 10 11 11 12 13 11 11 11 10
4 3 3 2 2 1 0 0 1 2 2 3 3 3 4 4 5 6 6 6 6 7 7 8 8 9 9 10 11 12 7 8 8 8 9 10 11 12 12 10 9 10 9
3 3 2 1 1 1 0 1 1 2 3 3 3 3 4 4 5 5 5 5 5 6 7 8 8 8 9 10 10 11 7 7 8 8 8 8 10 11 12 11 9 9 8
3 3 2 2 2 1 0 1 2 3 3 2 3 3 4 3 3 4 5 5 5 6 6 7 8 7 7 8 9 10 10 10 8 8 7 7 10 11 11 9 7 7 7
4 3 3 3 3 2 1 2 3 3 2 2 3 3 4 3 3 3 4 4 4 5 5 6 7 7 7 7 9 10 10 10 7 7 8 10 10 10 8 6 6 6 4
4 3 3 3 3 3 3 2 3 3 2 3 3 3 3 4 4 3 3 3 4 5 5 6 6 7 7 7 7 7 7 8 7 7 7 9 8 6 6 6 5 4 3
3 3 3 3 4 4 4 4 3 3 3 3 3 3 3 3 4 3 3 4 4 5 6 6 6 7 8 8 11 9 7 7 7 7 5 4 4 4 4 4 4 3 3
3 3 3 3 4 4 4 4 4 3 3 3 3 3 3 3 3 4 4 4 5 7 8 9 9 8 9 11 11 12 11 11 10 6 4 4 4 4 4 4 4 3 3
Wind_Direction
213 206 204 200 198 199 200 200 203 203 203 209 220 232 243 253 257 264 272 274 276 279 280 284 289 288 286 288 293 291 291 293 291 287 287 282 268 261 262 261 266 267 266
208 203 200 198 200 201 203 204 207 206 210 218 229 238 247 258 262 266 268 270 272 274 274 276 281 284 285 285 288 287 283 287 285 283 289 286 278 258 263 261 262 266 266
212 204 200 199 200 202 204 205 207 211 216 222 226 234 248 256 256 261 265 266 270 269 267 271 276 278 278 279 281 277 275 280 284 274 269 277 278 301 271 264 263 265 269
216 210 203 200 201 203 202 204 205 211 216 218 223 229 243 254 263 266 267 269 271 272 269 269 270 272 273 274 275 272 268 267 271 273 262 262 276 281 284 272 269 276 274
214 210 204 202 201 197 197 199 202 209 214 220 226 236 246 255 261 264 266 268 269 268 268 269 268 269 270 271 272 270 266 262 262 266 269 267 268 267 272 280 281 280 276
210 208 201 198 195 191 194 200 203 214 219 225 232 238 247 253 258 263 268 271 273 272 271 269 265 267 269 271 270 267 262 260 259 260 262 263 264 266 269 276 280 283 284
203 200 195 194 193 193 197 203 208 220 225 230 236 243 247 251 254 262 268 272 273 273 276 274 271 272 271 270 268 265 263 262 260 259 259 261 263 265 268 273 279 285 288
202 201 199 197 197 198 202 207 215 224 229 236 242 247 248 251 256 261 265 266 268 271 275 274 273 273 272 272 269 267 266 264 261 260 259 259 262 261 260 267 277 283 284
203 203 201 201 202 204 208 213 219 227 231 238 245 249 250 254 260 265 263 264 265 270 271 273 274 274 273 271 270 268 268 267 263 262 261 260 260 260 259 260 261 269 279
203 204 203 204 206 209 215 219 222 228 232 238 245 252 254 257 261 262 262 264 267 268 270 272 272 272 273 272 269 270 269 268 267 263 261 262 262 262 259 257 258 259 265
209 209 207 206 206 210 217 222 226 233 237 241 247 252 255 258 261 262 266 269 271 271 270 272 273 274 274 272 269 269 271 271 271 268 265 265 263 262 261 258 258 258 258
218 211 208 205 206 213 220 224 231 237 242 245 248 252 255 257 262 266 270 273 274 274 273 273 275 275 275 273 271 272 272 271 271 271 270 268 266 262 261 259 258 259 257
212 213 210 212 218 224 227 228 233 239 245 245 246 250 255 258 263 267 271 273 275 277 278 276 278 279 279 277 274 275 273 272 272 271 270 269 266 265 263 263 262 261 260
217 233 233 232 234 235 235 236 243 249 251 246 245 250 257 260 264 268 272 274 275 278 280 279 279 280 280 278 278 277 276 275 274 273 272 272 266 266 267 265 265 266 265
254 257 256 256 251 248 252 249 257 260 254 248 252 257 263 266 269 274 277 277 277 279 280 281 281 282 282 280 283 284 281 279 278 276 274 273 270 268 267 266 265 265 265
258 261 262 264 256 257 261 264 266 268 259 255 265 271 267 271 274 278 281 280 282 286 286 284 284 287 286 290 290 289 284 282 280 280 280 277 272 270 267 267 266 263 263
261 261 262 260 258 263 264 264 276 287 272 271 282 283 274 276 278 279 281 283 287 290 289 287 289 291 294 295 295 294 290 285 282 280 281 282 280 278 274 272 269 265 262
271 268 269 270 270 269 269 285 301 295 296 296 293 292 286 283 286 286 286 289 290 289 288 291 293 293 295 300 301 299 293 287 283 282 283 282 283 282 281 279 277 274 271
282 279 272 267 269 272 281 335 334 324 313 304 301 301 295 291 289 288 288 291 292 291 290 293 293 294 296 301 304 302 295 293 293 290 286 282 283 284 284 281 280 280 280
313 305 296 288 280 285 323 17 332 321 317 317 310 300 295 291 290 291 294 295 294 293 296 294 293 293 297 303 306 305 297 297 298 297 292 287 286 287 288 283 279 279 282
334 331 331 322 308 307 311 309 309 305 316 324 323 312 300 297 295 299 304 308 309 307 304 301 299 299 301 305 308 310 304 298 298 297 297 298 300 299 298 294 285 279 283
355 359 8 360 351 352 356 304 306 314 326 331 328 323 320 317 310 308 310 311 310 308 308 309 309 309 309 308 309 311 309 306 301 298 298 302 307 306 305 302 296 293 292
359 5 15 11 8 6 360 325 321 327 334 338 331 328 328 326 320 313 311 312 312 309 311 313 314 316 318 320 318 315 315 313 306 303 308 311 312 313 313 312 310 304 296
357 3 13 13 3 359 358 347 332 325 327 328 329 329 329 330 328 324 318 315 313 313 314 314 312 314 316 321 326 320 316 315 311 309 315 319 323 320 319 319 320 314 304
345 353 358 351 345 350 353 355 346 335 326 328 330 324 326 326 324 323 318 309 305 309 310 310 312 313 313 318 324 321 315 313 309 312 313 320 326 328 327 327 328 324 320
346 352 354 351 345 347 352 352 350 337 326 325 325 321 326 324 319 319 322 321 306 315 314 311 309 307 306 316 322 324 324 319 313 313 315 316 315 316 319 322 323 324 322
Height
1472 1474 1475 1477 1479 1480 1481 1483 1484 1485 1485 1485 1485 1485 1485 1485 1484 1483 1482 1481 1480 1478 1477 1476 1475 1473 1472 1470 1469 1467 1466 1464 1463 1461 1458 1457 1457 1455 1455 1454 1454 1454 1453
1468 1469 1471 1473 1474 1476 1477 1479 1480 1481 1481 1482 1482 1482 1482 1481 1480 1479 1478 1477 1476 1475 1474 1472 1471 1470 1468 1467 1465 1464 1462 1460 1460 1458 1456 1454 1453 1451 1450 1450 1449 1449 1448
1463 1465 1466 1468 1470 1472 1473 1474 1476 1477 1478 1478 1478 1478 1478 1477 1477 1476 1474 1473 1472 1471 1470 1469 1467 1466 1464 1462 1461 1460 1458 1457 1456 1455 1455 1453 1449 1447 1445 1445 1444 1444 1443
1458 1460 1461 1463 1465 1467 1469 1471 1472 1473 1474 1474 1474 1474 1474 1473 1472 1472 1471 1470 1469 1467 1466 1464 1463 1461 1460 1458 1457 1456 1454 1453 1452 1451 1451 1450 1448 1446 1441 1440 1439 1439 1438
1452 1454 1456 1459 1461 1464 1465 1467 1469 1469 1470 1470 1470 1470 1470 1469 1469 1468 1467 1465 1464 1463 1461 1460 1458 1457 1455 1453 1452 1451 1449 1448 1447 1447 1446 1445 1444 1442 1440 1435 1434 1433 1432
1448 1450 1453 1455 1457 1460 1461 1463 1464 1465 1466 1466 1466 1466 1466 1465 1464 1463 1462 1461 1459 1458 1457 1455 1454 1452 1450 1449 1447 1446 1445 1443 1442 1441 1440 1440 1439 1438 1436 1432 1429 1427 1426
1444 1446 1448 1450 1453 1455 1457 1459 1460 1461 1462 1462 1462 1462 1461 1461 1460 1459 1457 1456 1454 1453 1452 1450 1449 1447 1446 1444 1443 1441 1439 1438 1437 1436 1435 1434 1433 1433 1431 1429 1425 1422 1420
1441 1442 1444 1446 1448 1450 1452 1454 1456 1457 1457 1457 1457 1457 1457 1456 1455 1454 1453 1451 1450 1448 1447 1445 1443 1442 1441 1439 1437 1436 1434 1433 1432 1430 1429 1428 1427 1427 1426 1424 1422 1418 1415
1438 1439 1441 1443 1445 1447 1448 1450 1452 1453 1453 1453 1453 1453 1452 1451 1450 1449 1448 1446 1445 1443 1441 1440 1438 1437 1435 1434 1432 1430 1429 1427 1426 1424 1423 1422 1421 1420 1419 1418 1417 1416 1411
1436 1437 1439 1440 1442 1443 1445 1447 1448 1448 1449 1449 1449 1448 1447 1446 1445 1444 1442 1441 1439 1438 1436 1435 1433 1431 1430 1428 1426 1425 1423 1422 1420 1419 1417 1416 1414 1414 1413 1412 1411 1409 1407
1434 1435 1436 1438 1439 1440 1441 1443 1444 1444 1444 1444 1444 1443 1442 1441 1440 1439 1437 1436 1434 1432 1430 1429 1427 1425 1424 1422 1421 1419 1417 1416 1414 1412 1411 1409 1408 1407 1406 1405 1404 1403 1401
1432 1433 1434 1435 1436 1437 1438 1439 1439 1440 1439 1439 1439 1438 1437 1436 1435 1434 1432 1431 1429 1427 1425 1424 1422 1420 1418 1416 1415 1413 1411 1409 1407 1406 1404 1402 1401 1400 1399 1398 1397 1396 1395
1430 1431 1432 1432 1433 1434 1434 1435 1435 1435 1435 1434 1434 1433 1432 1431 1430 1429 1428 1426 1424 1422 1421 1419 1417 1414 1412 1410 1409 1407 1405 1403 1401 1400 1398 1396 1394 1393 1392 1391 1390 1389 1388
1429 1429 1430 1430 1431 1431 1431 1431 1431 1431 1431 1430 1429 1428 1428 1427 1426 1424 1423 1421 1419 1418 1416 1414 1412 1410 1408 1406 1404 1402 1399 1397 1395 1393 1392 1389 1388 1386 1386 1385 1384 1383 1382
1428 1427 1428 1428 1428 1428 1428 1428 1428 1428 1427 1426 1425 1424 1423 1423 1421 1420 1419 1417 1415 1413 1411 1409 1407 1405 1403 1401 1398 1396 1393 1391 1389 1387 1385 1384 1382 1380 1380 1379 1378 1377 1376
1426 1426 1425 1425 1425 1425 1425 1425 1425 1424 1423 1422 1421 1420 1419 1418 1417 1416 1414 1413 1411 1409 1407 1405 1403 1400 1398 1396 1394 1391 1388 1386 1383 1381 1379 1377 1376 1374 1373 1372 1371 1371 1370
1423 1423 1423 1423 1423 1423 1422 1422 1421 1421 1420 1419 1418 1417 1416 1414 1413 1412 1410 1408 1407 1405 1403 1401 1399 1396 1393 1391 1389 1386 1383 1380 1378 1375 1373 1371 1369 1368 1367 1365 1364 1364 1363
1421 1421 1421 1421 1421 1420 1420 1419 1419 1418 1417 1416 1415 1414 1412 1411 1409 1408 1406 1404 1403 1401 1398 1396 1394 1391 1388 1386 1383 1381 1378 1375 1372 1370 1368 1366 1363 1362 1361 1360 1358 1357 1356
1419 1418 1418 1418 1418 1417 1417 1416 1416 1415 1414 1413 1412 1411 1409 1408 1406 1404 1402 1401 1399 1397 1395 1392 1390 1387 1384 1381 1379 1376 1373 1370 1367 1365 1363 1361 1359 1357 1356 1354 1352 1351 1349
1416 1415 1415 1415 1415 1414 1414 1413 1413 1412 1411 1410 1409 1408 1406 1404 1403 1401 1399 1397 1395 1393 1390 1388 1385 1383 1379 1377 1374 1372 1369 1366 1363 1360 1358 1356 1354 1352 1351 1349 1347 1345 1344
1413 1413 1412 1412 1412 1411 1411 1411 1410 1410 1409 1407 1406 1404 1403 1401 1400 1398 1396 1394 1391 1389 1386 1384 1381 1379 1376 1373 1370 1368 1365 1362 1359 1356 1353 1351 1349 1347 1346 1344 1342 1341 1340
1411 1410 1410 1409 1409 1409 1409 1408 1408 1407 1406 1404 1403 1401 1400 1398 1396 1395 1393 1391 1388 1386 1383 1380 1377 1375 1372 1369 1366 1364 1362 1359 1356 1353 1350 1347 1345 1343 1341 1339 1337 1336 1335
1409 1409 1408 1408 1408 1407 1407 1406 1405 1404 1403 1401 1400 1398 1397 1395 1394 1392 1390 1388 1385 1383 1380 1377 1374 1371 1369 1366 1363 1360 1358 1355 1353 1350 1347 1344 1342 1340 1337 1335 1334 1333 1331
1408 1407 1407 1406 1406 1406 1405 1404 1403 1402 1401 1399 1397 1396 1394 1392 1391 1389 1387 1385 1383 1380 1378 1375 1372 1368 1365 1362 1360 1357 1355 1352 1350 1347 1344 1341 1339 1337 1335 1333 1331 1330 1328
1407 1406 1405 1404 1404 1404 1403 1402 1401 1400 1398 1397 1395 1394 1392 1390 1388 1386 1385 1383 1381 1379 1376 1372 1370 1366 1363 1361 1358 1356 1353 1350 1347 1344 1342 1339 1336 1334 1332 1331 1329 1328 1327
1406 1405 1404 1403 1402 1401 1401 1400 1399 1398 1396 1394 1393 1391 1389 1388 1386 1384 1382 1380 1379 1376 1373 1370 1368 1364 1362 1359 1356 1353 1350 1348 1345 1343 1339 1337 1335 1333 1331 1329 1328 1327 1326